Location: ??
(35.5090°N, 139.6783°E)
Time: 02:58:27
(UTC+00:00)

Tsikada Rocket - Pass Details

Date: 08 November 2025
Orbit: 957 x 1008 km, 82.9° (Epoch: 09 December)

Event Time Altitude Azimuth Distance (km) Brightness Sun altitude
Rises 08:27:20 0° 0° (N) 3,744 6.9 -10.1°
Reaches altitude 10° 08:30:01 10° 7° (N) 2,790 6.2 -10.6°
Maximum altitude 08:36:08 46° 79° (E) 1,333 4.3 -11.8°
Drops below altitude 10° 08:42:11 10° 151° (SSE) 2,759 6.2 -13.0°
Sets 08:44:49 0° 158° (SSE) 3,699 6.9 -13.5°
